User: anonymous   Login
Location: Niagara
(43.2500°N, 79.0670°W)
Time: 01:14:54
(UTC-05:00)
Language:

Hubble Space Telescope - Orbit

View from above orbital plane
View from above orbital plane
View from above satellite
View from above satellite

Ground track
Ground track

The orbit data is extracted from the following two-line orbital elements,

1 20580U 90037B   17350.35694444  .00000518  00000-0  20854-4 0  9996
2 20580  28.4690 243.6329 0002585 336.4754   0.1754 15.08945214317824
Epoch (UTC): 16 December 2017 08:34:00
Eccentricity: 0.0002585
inclination: 28.4690°
perigee height: 537 km
apogee height: 541 km
right ascension of ascending node: 243.6329°
argument of perigee: 336.4754°
revolutions per day: 15.08945214
mean anomaly at epoch: 0.1754°
orbit number at epoch: 31782

The dashed part of the orbit path shows where the satellite is in the earth's shadow,  

DLR